Theta_e
315 315 315 315 315 315 315 315 315 315 315 315 314 314 314 314 313 313 313 313 313 313 314 314 314 314 314 315 315 315 316 317 318 319 319 319 319 318 318 317 317 317
315 315 315 315 315 315 315 315 315 314 314 314 314 314 314 313 313 313 313 313 313 313 313 313 313 313 313 313 313 313 313 313 314 314 315 315 314 314 314 314 314 313
315 315 315 315 315 315 315 315 314 315 314 314 314 314 314 313 313 313 313 313 313 313 313 313 313 313 313 313 312 312 312 312 312 312 312 312 312 312 312 312 312 312
315 315 315 315 315 315 314 314 314 314 314 314 314 314 313 313 313 313 313 313 313 313 313 313 313 313 312 312 312 312 312 312 312 311 311 311 311 311 311 311 311 311
314 314 315 314 315 314 314 314 314 314 314 314 314 314 313 313 313 313 313 313 313 313 313 313 313 313 313 312 312 312 312 312 312 312 312 312 312 311 311 311 311 311
314 314 314 314 314 314 314 314 314 314 314 314 314 314 314 314 313 313 313 313 313 313 313 313 313 312 312 312 312 313 313 313 312 312 312 312 312 311 311 311 311 311
314 314 314 314 313 313 313 313 313 313 313 313 313 313 313 313 313 313 313 313 313 313 313 313 312 312 312 312 312 312 312 312 312 312 312 312 312 312 311 311 310 310
314 313 313 313 312 312 312 312 312 312 312 312 312 313 313 313 313 312 313 313 313 313 313 313 312 312 312 312 312 312 312 312 312 312 311 311 311 311 311 311 311 310
313 313 312 312 312 312 311 311 311 311 312 312 312 312 312 312 312 312 312 312 312 312 312 312 312 312 312 312 312 312 312 312 312 312 311 311 311 311 311 310 310 310
312 312 312 312 312 311 311 311 311 311 311 311 311 311 311 311 311 311 311 311 311 311 311 311 311 312 312 312 312 312 312 312 312 312 312 312 312 311 311 310 310 310
311 311 311 311 311 310 310 309 309 308 308 308 308 308 309 309 309 309 309 309 310 310 310 310 310 311 311 311 311 311 311 311 312 312 312 312 312 311 311 311 310 310
311 310 310 310 309 308 307 306 306 305 305 305 305 305 305 305 306 306 306 306 306 307 307 308 308 308 309 309 310 310 311 311 311 311 311 311 311 311 311 311 311 311
309 309 308 307 307 306 305 304 304 303 303 303 303 303 303 303 303 303 303 303 304 304 304 304 304 305 305 306 307 308 309 309 310 310 310 310 310 310 311 311 311 311
307 306 306 305 305 304 304 303 303 303 302 302 302 302 302 302 302 302 302 302 302 302 302 302 302 303 303 303 304 305 305 306 307 308 308 309 309 310 310 310 310 310
305 305 304 304 304 304 304 303 303 303 302 302 301 301 300 300 300 300 300 300 301 301 301 301 301 301 302 302 302 303 303 304 304 305 306 307 308 308 309 309 309 309
304 304 303 303 303 303 303 303 302 302 301 300 300 299 299 299 299 299 299 299 299 300 300 300 300 300 301 301 301 302 302 303 304 304 305 305 305 306 307 308 308 308
303 303 303 303 303 302 302 301 300 300 299 298 298 298 298 298 298 298 298 298 298 298 298 298 298 299 299 299 299 299 300 301 302 303 304 304 304 305 305 305 306 307
302 302 302 302 301 300 300 299 298 298 297 297 297 297 297 297 297 297 297 297 297 296 296 297 297 297 297 297 297 297 297 297 298 299 300 302 303 304 304 304 304 305
302 301 300 300 299 298 297 297 297 296 296 296 296 296 296 296 296 296 296 296 296 296 296 296 296 296 296 296 295 295 295 295 296 296 297 298 299 301 302 303 304 304
299 299 298 297 297 297 296 296 296 296 296 296 296 296 296 296 296 296 296 296 296 296 296 296 296 296 295 295 295 295 295 294 295 295 295 295 296 297 298 300 302 303
297 297 296 296 296 296 296 296 295 295 295 295 295 295 295 295 295 295 296 296 295 295 295 296 296 295 295 295 295 295 294 294 294 294 294 294 295 295 295 296 298 301
296 296 296 295 295 295 295 295 295 295 295 295 295 295 295 295 295 295 295 295 295 295 295 295 295 295 295 295 295 294 294 294 294 293 294 294 294 294 294 294 295 297
296 295 295 295 295 295 295 295 295 294 295 294 295 295 295 295 295 295 295 294 294 294 294 295 295 295 294 294 294 294 293 293 293 293 293 293 293 294 293 294 294 294
295 295 295 295 295 295 294 294 294 294 294 294 294 294 294 294 294 294 294 294 294 294 294 294 294 294 294 293 294 293 293 293 293 292 293 293 293 293 293 293 293 293
295 294 294 294 294 294 294 294 294 294 294 294 293 293 293 293 293 293 293 293 293 293 293 293 293 293 293 293 293 293 292 292 292 292 292 292 292 292 292 292 292 292
294 294 294 294 293 293 293 293 293 293 293 293 293 292 293 293 293 293 293 293 293 292 292 292 292 292 293 292 292 292 292 291 291 291 291 292 292 292 292 292 292 292
Wind_Speed
3 5 6 8 9 10 12 13 14 15 16 18 19 20 19 18 18 19 20 21 22 23 23 25 26 27 28 29 31 32 34 36 38 40 41 42 42 42 42 43 44 45
5 7 8 9 10 12 13 14 15 16 17 17 18 19 19 18 18 18 19 19 20 21 21 22 23 25 26 27 28 30 32 33 35 37 39 40 40 41 41 41 42 43
6 7 8 9 10 12 13 15 16 17 17 17 18 18 18 19 19 19 19 19 19 20 20 21 22 23 24 25 26 27 28 30 32 33 35 36 37 38 38 38 40 40
6 7 8 9 10 11 13 14 15 16 16 16 16 17 17 18 18 19 19 19 19 20 20 20 21 22 23 23 24 25 26 27 28 30 32 33 33 35 36 36 38 39
6 7 8 9 10 11 12 12 13 14 14 14 14 15 16 16 16 17 18 20 20 20 21 21 22 22 22 23 24 25 26 27 27 28 31 32 32 33 34 35 37 38
6 7 8 8 9 9 10 10 11 11 11 12 12 13 13 14 14 15 16 17 18 19 20 21 22 22 23 24 25 26 27 27 28 29 31 33 33 33 34 35 37 38
5 6 6 7 7 7 8 8 9 9 10 10 11 12 12 12 13 14 14 15 16 16 17 18 20 21 22 24 25 27 28 29 30 30 32 33 33 34 34 34 36 38
4 4 4 5 5 6 7 8 9 9 10 11 12 12 13 13 14 14 15 15 16 16 17 18 19 20 21 23 24 26 27 28 30 31 33 34 35 36 36 35 36 37
0 1 1 3 5 7 8 9 10 11 11 12 13 14 14 15 15 16 16 16 16 16 17 17 18 19 20 22 23 24 26 27 28 30 32 34 35 37 37 37 38 39
1 2 3 4 7 9 10 12 12 13 14 14 14 15 16 17 17 18 18 18 18 18 18 19 19 19 20 20 21 23 24 25 27 28 30 32 34 35 36 37 38 40
3 4 5 6 8 10 11 12 13 14 14 15 15 16 16 17 18 19 19 20 20 21 21 21 22 22 22 22 22 23 24 25 26 27 29 30 32 33 35 36 38 39
4 5 6 6 7 8 10 11 12 13 14 15 16 16 17 17 18 18 19 20 20 21 22 22 22 23 24 24 25 25 26 27 28 28 29 30 31 32 33 35 37 38
4 5 5 6 7 8 9 11 13 14 15 16 17 17 18 18 19 19 20 21 21 22 22 23 23 23 24 25 26 27 28 29 30 31 32 32 32 33 33 34 35 36
3 4 5 6 7 9 11 13 15 16 17 18 19 19 20 20 20 21 21 22 23 23 23 24 24 25 25 26 27 28 29 30 31 32 33 34 35 35 35 36 36 37
4 5 6 8 9 11 13 16 17 19 21 22 22 22 22 22 23 23 23 23 24 24 25 25 26 26 27 28 29 29 30 31 32 32 33 35 36 37 38 38 39 39
6 8 10 11 13 15 17 19 21 23 24 25 25 25 25 25 26 26 26 27 27 27 27 27 28 29 29 30 31 31 32 33 33 34 34 35 36 37 38 39 39 40
10 12 14 16 18 19 21 23 24 25 26 26 27 27 27 28 28 28 29 30 30 31 31 30 30 31 32 33 33 34 35 36 37 36 36 36 36 37 38 39 39 40
14 16 18 20 21 22 24 24 25 26 27 28 28 28 29 29 30 31 31 32 33 33 34 34 33 33 34 35 35 36 37 39 40 41 41 41 40 40 40 40 40 40
17 18 20 21 22 24 24 25 26 27 28 29 30 30 31 31 32 33 33 34 35 36 37 37 37 37 37 37 38 38 39 40 43 44 46 47 46 46 45 45 44 43
19 20 21 22 23 24 25 25 27 28 29 30 31 32 33 34 34 35 36 36 37 38 40 40 40 40 40 41 41 41 42 43 44 46 47 49 50 50 50 49 48 47
20 21 22 23 24 25 26 27 28 29 30 31 33 33 34 35 36 37 37 38 38 39 41 41 41 41 42 43 44 44 44 45 47 47 49 50 51 51 52 52 52 51
21 22 23 24 25 26 27 28 29 30 32 33 34 35 36 36 37 38 39 40 40 41 42 43 43 42 43 44 45 46 47 48 49 50 51 52 52 52 52 53 54 54
23 24 26 27 28 29 30 31 32 33 34 35 37 38 38 39 40 40 41 42 43 44 45 46 46 45 45 45 46 47 48 50 51 52 53 54 54 54 54 54 55 55
25 26 28 29 30 31 33 34 34 35 36 37 38 40 41 41 42 43 44 44 45 46 47 49 50 49 48 48 48 49 50 51 52 54 55 56 56 56 56 55 55 55
26 27 29 30 31 32 33 34 35 36 37 38 39 41 43 44 45 46 47 47 48 48 49 51 52 52 51 51 51 50 51 52 53 55 56 57 57 58 58 58 57 56
25 26 28 29 30 32 32 34 35 36 38 39 40 42 44 46 47 48 50 51 51 51 52 53 54 55 54 54 53 53 53 53 54 55 57 57 58 59 60 60 59 57
Wind_Direction
347 340 337 334 330 325 321 316 311 306 301 294 289 285 282 278 274 271 269 267 265 264 263 263 264 264 263 261 260 258 257 256 257 259 260 261 263 265 266 267 268 268
337 333 330 327 323 321 319 319 317 315 312 305 297 290 285 280 275 271 269 267 267 267 266 266 266 266 266 266 265 265 265 264 264 264 264 265 267 268 269 269 268 269
322 319 318 317 316 315 315 316 316 316 317 314 307 298 291 285 280 276 272 270 269 269 269 267 267 266 266 266 265 264 265 266 267 267 266 267 268 269 271 271 271 271
305 307 309 310 311 313 313 313 313 313 315 317 315 309 302 296 289 283 278 274 272 271 270 269 269 268 268 268 268 268 269 269 269 269 268 269 270 271 272 273 273 274
296 305 310 313 316 317 317 316 313 313 315 317 318 317 314 309 302 295 289 284 282 279 277 275 274 273 273 273 273 275 277 277 278 277 276 277 277 276 276 276 275 275
301 312 319 322 323 323 321 319 318 318 319 319 319 317 317 317 313 309 303 299 297 294 290 286 283 281 279 278 277 278 280 280 280 279 278 280 280 278 278 277 276 276
307 320 327 329 331 331 329 327 328 329 329 329 327 323 321 321 318 316 314 312 310 308 305 300 296 293 289 286 284 283 283 281 280 278 277 278 278 277 277 276 276 277
302 316 332 340 343 344 343 342 342 343 344 343 340 336 334 332 330 328 325 323 322 319 315 312 309 306 302 299 297 295 292 289 287 284 282 281 279 279 279 278 278 277
270 323 353 354 350 348 347 346 344 344 345 345 343 341 340 340 339 339 338 336 336 332 328 325 320 317 314 311 308 306 303 300 296 293 290 289 287 286 285 283 281 281
67 21 2 350 347 345 344 344 342 341 340 340 338 336 335 335 335 335 336 336 336 335 334 333 330 327 324 321 316 312 307 304 301 298 295 294 293 292 290 288 286 284
344 349 350 347 346 345 345 345 344 343 342 342 341 338 336 335 334 332 331 331 330 330 329 329 328 327 326 324 321 317 313 309 306 303 300 298 296 295 294 291 289 288
328 338 345 347 348 348 348 349 348 346 344 343 342 342 340 339 337 335 333 332 331 329 328 326 325 324 322 320 318 315 313 312 310 308 306 304 302 299 297 295 293 292
325 340 347 352 354 352 350 348 346 343 341 340 338 337 336 334 334 333 331 331 331 330 329 328 327 326 323 320 318 315 313 310 308 307 306 305 304 302 300 298 296 295
344 354 357 358 353 347 343 340 338 337 336 335 334 332 330 329 327 326 325 325 325 325 325 325 325 326 324 321 320 318 314 311 309 307 306 304 302 301 300 299 298 297
356 352 347 344 339 335 333 331 331 331 330 330 329 328 326 325 323 322 321 320 320 320 321 322 322 323 323 322 321 319 316 313 311 309 307 305 304 302 301 300 299 298
343 339 337 335 333 332 331 330 329 328 327 326 326 325 323 322 321 320 320 319 318 318 318 318 320 320 320 321 321 320 317 314 312 310 308 306 305 303 302 301 300 299
337 336 336 334 333 332 330 329 328 326 325 324 323 323 321 321 320 319 319 319 318 317 317 317 318 318 318 318 318 318 317 315 313 311 308 306 305 303 303 302 302 301
336 334 334 331 330 330 329 328 327 325 324 323 323 323 321 320 321 320 319 319 318 318 318 318 318 318 317 316 316 316 316 314 312 311 310 309 308 306 305 305 304 304
331 330 329 328 327 328 327 326 326 325 324 323 323 323 322 321 321 320 320 320 319 319 318 318 319 319 319 318 318 317 317 315 312 311 311 309 309 308 308 307 306 305
327 326 326 326 325 326 326 325 324 324 323 322 321 321 320 320 319 319 318 318 318 318 316 316 317 318 318 318 318 318 318 316 313 311 310 308 307 307 307 307 306 305
325 325 325 324 324 324 323 323 322 322 321 320 319 319 318 318 317 316 315 315 315 314 313 312 313 314 315 315 315 315 315 314 312 310 309 307 306 305 305 305 305 304
325 325 324 324 323 322 322 322 321 321 321 319 318 317 316 316 315 314 314 313 312 312 310 309 308 310 311 311 311 312 312 311 310 309 308 306 305 304 304 303 302 302
325 325 324 323 323 322 322 322 321 321 320 319 317 316 315 314 313 312 311 311 311 310 310 308 307 308 309 309 309 310 309 308 308 307 306 305 304 304 304 303 301 300
324 323 323 322 321 321 320 320 319 319 318 317 316 314 313 313 312 311 310 310 310 309 309 308 307 307 308 308 307 308 307 306 306 305 304 303 303 303 302 301 301 300
321 320 319 318 318 318 317 317 316 316 315 315 314 313 312 311 311 310 309 309 308 308 307 307 306 306 306 307 306 306 305 304 304 303 302 301 302 302 301 301 300 301
316 315 315 314 314 314 313 314 313 313 312 311 310 309 308 308 308 308 307 307 307 307 306 305 305 305 305 306 305 305 304 303 303 302 301 300 300 300 299 299 299 300